Regional Weather Roundup
Issued by NWS Albany, NY

Home | Current Version | Previous Version | Graphics & Text | Print | Product List | Glossary Off
Versions: 1 2 3 4 5 6 7 8 9 10 11 12 13 14 15 16 17 18 19 20 21 22 23 24 25 26 27 28 29 30 31 32 33 34 35 36 37 38 39 40 41 42 43 44 45 46 47 48 49 50

000
ASUS41 KALY 262310
RWRALY

NEW YORK STATE HOURLY WEATHER ROUNDUP
NATIONAL WEATHER SERVICE ALBANY NY
700 PM EDT THU MAR 26 2015

NOTE: "FAIR" INDICATES FEW OR NO CLOUDS BELOW 12,000 FEET WITH NO
SIGNIFICANT WEATHER AND/OR NO OBSTRUCTIONS TO VISIBILITY.

NYZ032-033-038>043-046>054-057>066-NYZ062>081-270000-
EAST


CITY           SKY/WX    TMP DP  RH WIND       PRES   REMARKS
ALBANY         RAIN      39  37  92 N7        29.72R FOG     WCI  34
GLENS FALLS    LGT RAIN  38  36  92 N5        29.72S FOG     WCI  34
POUGHKEEPSIE   CLOUDY    46  44  93 N7        29.63S FOG
NEWBURGH       CLOUDY    46  46 100 NE5       29.62F FOG
MONTGOMERY     FOG       45  44  97 N3        29.61R VSB 1/4
WHITE PLAINS   FOG       54  52  94 CALM      29.59F VSB 1/4
ISLIP          FOG       51  50  96 SW21G28   29.64F VSB 3/4
NEW YORK CITY  MOCLDY    56  52  86 S7        29.60F
CENTRAL PARK   MOCLDY    58  54  86 S7        29.61F
$$

NYZ005>009-017-018-044>046-055-056-270000-
CENTRAL


CITY           SKY/WX    TMP DP  RH WIND       PRES   REMARKS
FULTON         LGT SNOW  34  31  88 W6        29.80R FOG     WCI  29
SYRACUSE       LGT RAIN  34  33  96 W5        29.79R WCI  30
ROME           LGT RAIN  34  33  96 W6        29.78R WCI  29
ELMIRA         LGT RAIN  37  37 100 CALM      29.77R
BINGHAMTON     LGT RAIN  35  35 100 N10       29.70F VSB 1   WCI  27
MONTICELLO     CLOUDY    43  41  93 NW12      29.68R
$$

NYZ026>034-041>043-270000-
NORTH


CITY           SKY/WX    TMP DP  RH WIND       PRES   REMARKS
WATERTOWN      LGT SNOW  34  32  92 SW6       29.78S FOG     WCI  29
FORT DRUM      NOT AVBL
MASSENA        CLOUDY    35  35 100 SW7       29.77R WCI  29
SARANAC LAKE   LGT SNOW  33  32  96 SW3       29.68R FOG
PLATTSBURGH    LGT RAIN  36  36 100 N3        29.73R FOG
$$

NYZ001>004-010>016-019>021-270000-
WEST


CITY           SKY/WX    TMP DP  RH WIND       PRES   REMARKS
NIAGARA FALLS  CLOUDY    35  33  92 SW8       29.79S WCI  29
BUFFALO        CLOUDY    33  32  96 SW12      29.80S FOG     WCI  24
DUNKIRK        CLOUDY    34  33  96 SW7       29.83R WCI  28
JAMESTOWN      CLOUDY    32  28  86 SW7       29.78S WCI  26
WELLSVILLE     MIX PCPN  35  31  85 N5        29.75R WCI  31
ROCHESTER      LGT RAIN  36  34  92 W5        29.80R WCI  32
PENN YAN       LGT RAIN  35  34  96 CALM      29.78R VSB 1
$$

             KEY
       WCI = WIND CHILL INDEX
       VSB = VISIBILITY
       HX  = HEAT INDEX
$$


USA.gov is the U.S. government's official web portal to all federal, state and local government web resources and services.